GW1769 Weather Reports


time (UTC)temp
F
wind
direction
speed
knots
gust
knots
rain 1hr
in
rain 24hr
in
rain mn
in
humidity
%
barometer
mb
20260903013858 63 177 0.0 0.0 0.00 0.00 0.00 98 1014.1
20260903013358 63 159 0.9 0.9 0.00 0.00 0.00 98 1014.0
20260903012857 63 186 1.7 1.7 0.00 0.00 0.00 98 1014.2
20260903012356 63 178 0.0 0.0 0.00 0.00 0.00 97 1014.1
20260903011856 63 180 0.0 0.0 0.00 0.00 0.00 97 1014.2
20260903011350 63 197 0.9 0.9 0.00 0.00 0.00 97 1014.0
20260903010845 63 168 0.0 0.0 0.00 0.00 0.00 96 1014.2
20260903010335 63 176 0.0 0.0 0.00 0.00 0.00 95 1014.3
20260903005833 63 182 0.0 0.0 0.00 0.00 0.00 95 1014.6
20260903005329 63 170 0.9 1.7 0.00 0.00 0.00 95 1014.7
20260903004824 63 170 0.0 0.0 0.00 0.00 0.00 95 1015.0
20260903004320 63 187 0.9 0.9 0.00 0.00 0.00 94 1014.7
20260903003815 63 174 0.0 0.0 0.00 0.00 0.00 94 1014.3
20260903003309 63 183 0.0 0.0 0.00 0.00 0.00 94 1014.2
20260903002804 63 166 1.7 1.7 0.00 0.00 0.00 94 1014.1
20260903002306 63 171 1.7 2.6 0.00 0.00 0.00 95 1013.9
20260903001759 63 204 0.9 1.7 0.00 0.00 0.00 94 1013.4
20260903001254 63 196 0.9 1.7 0.00 0.00 0.00 93 1014.2
20260903000748 63 187 0.0 0.0 0.00 0.00 0.00 93 1014.2
20260903000243 63 210 0.9 1.7 0.00 0.00 0.00 93 1014.0
20260902235741 63 173 0.0 0.9 0.00 0.00 0.00 93 1013.5
20260902235237 63 172 0.9 1.7 0.00 0.00 0.00 94 1013.4
20260902234736 63 245 1.7 1.7 0.00 0.00 0.00 94 1013.6
20260902234236 63 127 1.7 1.7 0.00 0.00 0.00 94 1013.3
20260902233735 63 209 1.7 1.7 0.00 0.00 0.00 94 1013.0
20260902233230 63 182 2.6 4.3 0.00 0.00 0.00 95 1013.1
20260902232728 63 136 1.7 1.7 0.00 0.00 0.00 95 1013.1
20260902232223 63 135 0.9 1.7 0.00 0.00 0.00 94 1012.9
20260902231717 63 228 2.6 2.6 0.00 0.00 0.00 94 1013.4
20260902231212 64 183 0.0 0.9 0.00 0.00 0.00 94 1013.5
20260902230707 64 165 0.9 1.7 0.00 0.00 0.00 93 1014.0
20260902230206 64 126 2.6 2.6 0.00 0.00 0.00 94 1014.1
20260902225701 64 182 0.0 0.0 0.00 0.00 0.00 94 1014.6
20260902225200 64 180 0.9 0.9 0.00 0.00 0.00 94 1014.4
20260902224659 64 158 1.7 2.6 0.00 0.00 0.00 94 1014.6
20260902224155 64 190 0.9 0.9 0.00 0.00 0.00 95 1014.8
20260902223650 64 178 0.0 0.0 0.00 0.00 0.00 95 1014.7
20260902223150 64 180 0.0 0.0 0.00 0.00 0.00 96 1014.8
20260902222644 64 174 0.0 0.0 0.00 0.00 0.00 96 1014.8
20260902222142 64 180 0.0 0.0 0.00 0.00 0.00 96 1015.0
20260902221637 64 97 0.9 1.7 0.00 0.00 0.00 96 1015.1
20260902221132 64 25 0.9 1.7 0.00 0.00 0.00 95 1015.1
20260902220628 64 182 0.9 1.7 0.00 0.00 0.00 95 1015.1
20260902220127 64 230 0.9 1.7 0.00 0.00 0.00 96 1015.1
20260902215623 64 252 1.7 1.7 0.00 0.00 0.00 95 1015.1
20260902215118 64 219 1.7 1.7 0.00 0.00 0.00 96 1015.2
20260902214613 64 179 0.0 0.0 0.00 0.00 0.00 96 1015.2
20260902214112 64 180 0.0 0.0 0.00 0.00 0.00 96 1015.1
20260902213608 64 221 0.9 1.7 0.00 0.00 0.00 96 1015.3
20260902213107 64 148 0.9 0.9 0.00 0.00 0.00 97 1015.3
20260902212603 64 166 1.7 1.7 0.00 0.00 0.00 97 1015.0
20260902212059 64 51 1.7 1.7 0.00 0.00 0.00 97 1015.2
20260902211555 64 179 0.0 0.0 0.00 0.00 0.00 97 1015.5
20260902211050 64 174 0.9 1.7 0.00 0.00 0.00 97 1015.6
20260902210549 64 187 0.9 1.7 0.00 0.00 0.00 96 1015.7
20260902210044 64 223 0.9 0.9 0.00 0.00 0.00 96 1015.5
20260902205543 64 23 0.9 1.7 0.00 0.00 0.00 97 1015.6
20260902205039 64 186 0.9 0.9 0.00 0.00 0.00 97 1015.5
20260902204539 64 10 1.7 2.6 0.00 0.00 0.00 97 1015.5
20260902204034 64 209 1.7 1.7 0.00 0.00 0.00 97 1015.2
20260902203529 64 174 0.9 0.9 0.00 0.00 0.00 96 1015.2
20260902203028 65 163 0.9 0.9 0.00 0.00 0.00 96 1015.5
20260902202524 65 188 0.0 0.9 0.00 0.00 0.00 96 1015.1
20260902202020 65 169 0.0 0.9 0.00 0.00 0.00 96 1015.0
20260902201515 65 62 1.7 2.6 0.00 0.00 0.00 95 1015.3
20260902201010 65 160 0.0 0.9 0.00 0.00 0.00 95 1015.5
20260902200505 65 179 0.9 1.7 0.00 0.00 0.00 94 1015.6
20260902200000 65 187 0.9 1.7 0.00 0.00 0.00 94 1015.7
20260902195456 66 160 0.9 1.7 0.00 0.00 0.00 94 1015.6
20260902194950 66 136 1.7 2.6 0.00 0.00 0.00 94 1015.4
20260902194449 66 126 0.9 0.9 0.00 0.00 0.00 94 1015.2
20260902193945 66 183 0.9 0.9 0.00 0.00 0.00 93 1015.2
20260902193440 66 211 2.6 2.6 0.00 0.00 0.00 92 1015.5
20260902192939 66 174 0.9 0.9 0.00 0.00 0.00 92 1015.3
20260902192438 66 174 0.0 0.9 0.00 0.00 0.00 95 1015.6
20260902191937 65 175 0.0 0.9 0.00 0.00 0.00 95 1015.5
20260902191432 64 179 0.0 0.9 0.00 0.00 0.00 96 1015.4
20260902190928 64 230 0.9 0.9 0.00 0.00 0.00 95 1015.7
20260902190423 64 176 0.0 0.9 0.00 0.00 0.00 96 1015.5
20260902185918 64 179 0.0 0.9 0.00 0.00 0.00 95 1015.7
20260902185414 64 187 0.9 0.9 0.00 0.00 0.00 95 1015.9
20260902184909 64 253 2.6 2.6 0.00 0.00 0.00 95 1015.6
20260902184404 65 36 2.6 4.3 0.00 0.00 0.00 95 1015.4
20260902183900 65 196 1.7 1.7 0.00 0.00 0.00 95 1015.6
20260902183356 65 180 0.0 0.9 0.00 0.00 0.00 94 1015.2
20260902182852 65 181 0.0 0.9 0.00 0.00 0.00 94 1015.4
20260902182348 65 173 0.0 0.0 0.00 0.00 0.00 95 1015.5
20260902181844 65 208 1.7 1.7 0.00 0.00 0.00 94 1015.6
20260902181339 64 271 0.9 1.7 0.00 0.00 0.00 95 1015.8
20260902180833 64 27 1.7 2.6 0.00 0.00 0.00 96 1015.5
20260902180329 64 186 0.9 1.7 0.00 0.00 0.00 97 1015.6
20260902175824 64 183 0.9 0.9 0.00 0.00 0.00 97 1015.7
20260902175319 63 158 0.9 1.7 0.00 0.00 0.00 97 1015.8
20260902174815 63 78 1.7 1.7 0.00 0.00 0.00 97 1015.8
20260902174312 63 247 1.7 1.7 0.00 0.00 0.00 98 1015.8
20260902173807 63 162 0.0 0.0 0.00 0.00 0.00 98 1016.1
20260902173301 62 203 0.0 0.0 0.00 0.00 0.00 98 1015.8
20260902172755 62 26 3.5 5.2 0.00 0.00 0.00 98 1015.9
20260902172255 62 202 0.0 0.0 0.00 0.00 0.00 99 1016.2
20260902171750 62 136 0.9 0.9 0.00 0.00 0.00 99 1016.1
20260902171245 62 172 0.0 0.9 0.00 0.00 0.00 99 1015.8
20260902170742 62 185 0.0 0.9 0.00 0.00 0.00 99 1016.2
20260902170237 62 140 0.9 0.9 0.00 0.00 0.00 99 1016.4
20260902165732 62 216 1.7 1.7 0.00 0.00 0.00 99 1016.3
20260902165226 62 211 0.9 1.7 0.00 0.00 0.00 99 1016.5
20260902164726 62 183 0.9 0.9 0.00 0.00 0.00 99 1016.4
20260902164221 62 170 0.9 0.9 0.00 0.00 0.00 99 1016.7
20260902163716 63 82 0.9 1.7 0.00 0.00 0.00 99 1016.7
20260902163215 62 182 0.9 0.9 0.00 0.00 0.00 98 1016.6
20260902162714 63 179 0.9 0.9 0.00 0.00 0.00 98 1016.5
20260902162209 63 123 0.9 1.7 0.00 0.00 0.00 98 1016.5
20260902161704 63 15 0.9 1.7 0.00 0.00 0.00 99 1016.2
20260902161159 62 293 0.9 1.7 0.00 0.00 0.00 99 1016.2
20260902160656 62 316 0.9 1.7 0.00 0.00 0.00 99 1016.4
20260902160150 62 215 0.0 0.0 0.00 0.00 0.00 99 1016.5
20260902155649 62 342 0.9 5.2 0.00 0.00 0.00 99 1016.4
20260902155148 62 198 0.9 0.9 0.00 0.00 0.00 99 1016.5
20260902154643 62 169 0.0 0.0 0.00 0.00 0.00 99 1016.7
20260902154137 62 72 1.7 1.7 0.00 0.00 0.00 99 1016.6
20260902153637 62 171 0.0 0.0 0.00 0.00 0.00 99 1017.0
20260902153132 62 169 0.9 0.9 0.00 0.00 0.00 99 1016.9
20260902152628 62 167 0.0 0.0 0.00 0.00 0.00 99 1016.9
20260902152123 62 160 0.0 0.9 0.00 0.00 0.00 99 1017.1
20260902151619 62 185 0.0 0.0 0.00 0.00 0.00 99 1017.0
20260902151113 61 192 0.0 0.0 0.00 0.00 0.00 99 1017.0
20260902150608 61 153 0.9 0.9 0.00 0.00 0.00 99 1017.0
20260902150103 61 136 1.7 2.6 0.00 0.00 0.00 99 1016.9
20260902145557 61 182 0.9 0.9 0.00 0.00 0.00 99 1016.8
20260902145057 61 200 0.9 0.9 0.00 0.00 0.00 99 1016.5
20260902144554 61 176 0.0 0.0 0.00 0.00 0.00 99 1016.8
20260902144049 61 174 0.9 1.7 0.00 0.00 0.00 99 1016.8
20260902143544 61 220 0.9 0.9 0.00 0.00 0.00 99 1017.0
20260902143040 61 162 0.9 0.9 0.00 0.00 0.00 99 1016.6
20260902142535 61 169 0.0 0.0 0.00 0.00 0.00 99 1017.0
20260902142030 61 273 1.7 2.6 0.00 0.00 0.00 99 1017.0
20260902141529 61 138 1.7 4.3 0.00 0.00 0.00 99 1017.0
20260902141025 61 161 0.9 1.7 0.00 0.00 0.00 99 1017.1
20260902140519 61 140 0.9 0.9 0.00 0.00 0.00 99 1016.9
20260902140015 62 181 0.0 0.0 0.00 0.00 0.00 99 1016.7
20260902135509 62 212 0.0 0.0 0.00 0.00 0.00 99 1016.7
20260902135009 62 174 0.0 0.0 0.00 0.00 0.00 99 1016.8
20260902134500 62 129 0.0 0.0 0.00 0.00 0.00 99 1016.8
20260902134000 62 181 0.0 0.0 0.00 0.00 0.00 99 1016.7
20260902133454 62 119 0.0 0.0 0.00 0.00 0.00 99 1016.6
20260902132950 62 171 0.0 0.0 0.00 0.00 0.00 99 1016.7
20260902132445 62 182 0.0 0.0 0.00 0.00 0.00 99 1016.6
20260902131944 62 178 0.0 0.0 0.00 0.00 0.00 99 1016.5
20260902131441 62 179 0.0 0.0 0.00 0.00 0.00 99 1016.6
20260902130941 61 177 0.0 0.0 0.00 0.00 0.00 99 1016.6
20260902130438 61 185 0.0 0.0 0.00 0.00 0.00 99 1016.6
20260902125938 61 166 0.0 0.0 0.00 0.00 0.00 99 1016.7
20260902125434 61 203 0.9 1.7 0.00 0.00 0.00 99 1016.6
20260902124929 61 186 0.0 0.0 0.00 0.00 0.00 99 1016.2
20260902124425 61 174 0.0 0.0 0.00 0.00 0.00 99 1016.5
20260902123920 61 191 0.0 0.0 0.00 0.00 0.00 99 1016.7
20260902123417 61 177 0.0 0.0 0.00 0.00 0.00 99 1016.5
20260902122914 61 148 0.0 0.0 0.00 0.00 0.00 99 1016.4
20260902122411 61 182 0.9 1.7 0.00 0.00 0.00 99 1016.3
20260902121906 61 75 0.9 1.7 0.00 0.00 0.00 99 1016.3
20260902121401 61 176 0.0 0.0 0.00 0.00 0.00 99 1016.3
20260902120856 61 177 0.0 0.0 0.00 0.00 0.00 99 1016.3
20260902120352 61 171 0.0 0.0 0.00 0.00 0.00 99 1016.2
20260902115846 61 174 0.0 0.0 0.00 0.00 0.00 99 1016.1
20260902115343 61 173 0.0 0.0 0.00 0.00 0.00 99 1016.2
20260902114839 61 175 0.0 0.0 0.00 0.00 0.00 99 1016.4
20260902114335 61 187 0.0 0.0 0.00 0.00 0.00 99 1016.1
20260902113834 61 165 0.0 0.0 0.00 0.00 0.00 99 1016.2
20260902113330 61 180 0.0 0.0 0.00 0.00 0.00 99 1016.2
20260902112829 61 177 0.0 0.0 0.00 0.00 0.00 99 1016.1
20260902112326 61 180 0.0 0.0 0.00 0.00 0.00 99 1016.2
20260902111821 61 185 0.0 0.0 0.00 0.00 0.00 99 1016.3
20260902111318 61 182 0.0 0.0 0.00 0.00 0.00 99 1016.1
20260902110813 61 180 0.0 0.0 0.00 0.00 0.00 99 1016.2
20260902110309 61 180 0.0 0.0 0.00 0.00 0.00 99 1016.2
20260902105809 61 171 0.0 0.0 0.00 0.00 0.00 99 1016.4
20260902105306 61 179 0.0 0.0 0.00 0.00 0.00 99 1016.4
20260902104759 61 159 0.0 0.0 0.00 0.00 0.00 99 1016.4
20260902104255 61 181 0.0 0.0 0.00 0.00 0.00 99 1016.4
20260902103754 61 179 0.0 0.0 0.00 0.00 0.00 99 1016.6
20260902103249 61 180 0.0 0.0 0.00 0.00 0.00 99 1016.4
20260902102744 60 180 0.0 0.0 0.00 0.00 0.00 99 1016.1
20260902102242 61 179 0.0 0.0 0.00 0.00 0.00 99 1016.2
20260902101737 61 191 0.0 0.0 0.00 0.00 0.00 99 1016.4
20260902101232 60 159 0.0 0.0 0.00 0.00 0.00 99 1016.4
20260902100731 61 181 0.0 0.0 0.00 0.00 0.00 99 1016.2
20260902100226 61 191 0.0 0.0 0.00 0.00 0.00 99 1016.1
20260902095726 61 178 0.0 0.0 0.00 0.00 0.00 99 1016.1
20260902095220 61 180 0.0 0.0 0.00 0.00 0.00 99 1016.1
20260902094715 61 180 0.0 0.0 0.00 0.00 0.00 99 1016.2
20260902094211 61 184 0.0 0.0 0.00 0.00 0.00 99 1016.3
20260902093710 61 187 0.0 0.0 0.00 0.00 0.00 99 1016.0
20260902093205 61 186 0.0 0.0 0.00 0.00 0.00 99 1015.9
20260902092700 61 177 0.0 0.0 0.00 0.00 0.00 99 1015.7
20260902092155 61 142 0.0 0.0 0.00 0.00 0.00 99 1015.9
20260902091655 61 175 0.0 0.0 0.00 0.00 0.00 99 1015.6
20260902091152 61 172 0.0 0.0 0.00 0.00 0.00 99 1015.8
20260902090647 61 207 0.0 0.0 0.00 0.00 0.00 99 1015.9
20260902090147 61 179 0.0 0.0 0.00 0.00 0.00 99 1015.9
20260902085641 61 183 0.0 0.0 0.00 0.00 0.00 99 1015.8
20260902085136 61 176 0.0 0.0 0.00 0.00 0.00 99 1015.7
20260902084632 61 186 0.0 0.0 0.00 0.00 0.00 99 1015.7
20260902084128 61 176 0.0 0.0 0.00 0.00 0.00 99 1015.7
20260902083623 61 178 0.0 0.0 0.00 0.00 0.00 99 1015.5
20260902083122 61 179 0.0 0.0 0.00 0.00 0.00 99 1015.5
20260902082618 61 174 0.9 0.9 0.00 0.00 0.00 99 1015.6
20260902082114 61 191 0.0 0.0 0.00 0.00 0.00 99 1015.5
20260902081611 61 181 0.0 0.0 0.00 0.00 0.00 99 1015.4
20260902081105 61 176 0.0 0.0 0.00 0.00 0.00 99 1015.3
20260902080600 61 174 0.0 0.0 0.00 0.00 0.00 99 1015.6
20260902080056 61 177 0.0 0.0 0.00 0.00 0.00 99 1015.7
20260902075556 61 181 0.0 0.0 0.00 0.00 0.00 99 1015.5
20260902075052 61 170 0.0 0.0 0.00 0.00 0.00 99 1015.4
20260902074547 61 144 0.0 0.0 0.00 0.00 0.00 99 1015.5
20260902074043 61 212 0.0 0.0 0.00 0.00 0.00 99 1015.4
20260902073538 61 176 0.0 0.0 0.00 0.00 0.00 99 1015.5
20260902073035 61 176 0.0 0.0 0.00 0.00 0.00 99 1015.6
20260902072530 61 174 0.0 0.0 0.00 0.00 0.00 99 1015.8
20260902072027 61 183 0.0 0.0 0.00 0.00 0.00 99 1015.8
20260902071526 61 178 0.0 0.0 0.00 0.00 0.00 99 1015.5
20260902071022 61 156 0.0 0.0 0.00 0.00 0.00 99 1015.5
20260902070517 61 179 0.0 0.0 0.00 0.00 0.00 99 1015.7
20260902070012 61 178 0.0 0.0 0.00 0.00 0.00 99 1015.6
20260902065505 61 173 0.0 0.0 0.00 0.00 0.00 99 1015.8
20260902065000 61 180 0.0 0.0 0.00 0.00 0.00 99 1015.6
20260902064450 61 182 0.0 0.0 0.00 0.00 0.00 99 1015.7
20260902063946 61 182 0.0 0.0 0.00 0.00 0.00 99 1015.7
20260902063445 61 178 0.0 0.0 0.00 0.00 0.00 99 1015.7
20260902062941 61 180 0.0 0.0 0.00 0.00 0.00 99 1015.9
20260902062439 61 170 0.0 0.0 0.00 0.00 0.00 99 1015.8
20260902061934 61 180 0.0 0.0 0.00 0.00 0.00 99 1015.8
20260902061430 61 177 0.0 0.0 0.00 0.00 0.00 99 1016.1
20260902060926 61 172 0.0 0.0 0.00 0.00 0.00 99 1016.0
20260902060422 61 177 0.0 0.0 0.00 0.00 0.00 99 1016.0
20260902055917 61 164 0.0 0.0 0.00 0.00 0.00 99 1015.8
20260902055414 61 195 0.0 0.0 0.00 0.00 0.00 99 1015.8
20260902054909 61 144 0.9 1.7 0.00 0.00 0.00 99 1015.7
20260902054403 61 178 0.0 0.0 0.00 0.00 0.00 99 1015.7
20260902053859 61 181 0.0 0.0 0.00 0.00 0.00 99 1015.8
20260902053355 62 175 0.0 0.0 0.00 0.00 0.00 99 1015.5
20260902052853 62 178 0.0 0.0 0.00 0.00 0.00 99 1015.7
20260902052349 62 178 0.0 0.0 0.00 0.00 0.00 99 1015.5
20260902051844 62 174 0.0 0.0 0.00 0.00 0.00 99 1015.6
20260902051343 62 182 0.0 0.0 0.00 0.00 0.00 99 1015.5
20260902050838 62 179 0.0 0.0 0.00 0.00 0.00 99 1015.4
20260902050337 62 175 0.0 0.0 0.00 0.00 0.00 99 1015.0
20260902045832 62 173 0.0 0.0 0.00 0.00 0.00 99 1015.1
20260902045328 62 179 0.0 0.0 0.00 0.00 0.00 99 1015.0
20260902044825 62 179 0.0 0.0 0.00 0.00 0.00 99 1015.0
20260902044320 62 179 0.0 0.0 0.00 0.00 0.00 99 1014.8
20260902043819 62 255 0.9 1.7 0.00 0.00 0.00 99 1014.9
20260902043315 62 176 0.0 0.0 0.00 0.00 0.00 99 1014.8
20260902042814 62 183 0.0 0.0 0.00 0.00 0.00 99 1014.9
20260902042309 62 180 0.0 0.0 0.00 0.00 0.00 99 1014.6
20260902041805 63 178 0.0 0.9 0.00 0.00 0.00 99 1014.4
20260902041304 63 153 0.0 0.0 0.00 0.00 0.00 99 1014.6
20260902040803 63 164 0.0 0.0 0.00 0.00 0.00 99 1014.3
20260902040259 63 27 0.0 0.0 0.00 0.00 0.00 99 1014.1
20260902035757 63 178 0.0 0.0 0.00 0.00 0.00 99 1014.4
20260902035254 63 181 0.0 0.0 0.00 0.00 0.00 99 1014.4
20260902034752 63 177 0.0 0.0 0.00 0.00 0.00 99 1014.4
20260902034248 63 179 0.0 0.0 0.00 0.00 0.00 99 1014.0
20260902033745 63 187 0.0 0.0 0.00 0.00 0.00 99 1014.2
20260902033241 63 175 0.0 0.0 0.00 0.00 0.00 99 1014.2
20260902032739 64 179 0.0 0.0 0.00 0.00 0.00 99 1014.3
20260902032235 64 179 0.0 0.0 0.00 0.00 0.00 99 1014.2
20260902031734 64 177 0.0 0.0 0.00 0.00 0.00 99 1014.4
20260902031230 64 172 0.0 0.0 0.00 0.00 0.00 99 1014.4
20260902030726 64 176 0.0 0.0 0.00 0.00 0.00 99 1014.4
20260902030220 64 176 0.0 0.0 0.00 0.00 0.00 99 1014.1
20260902025719 64 264 0.0 0.9 0.00 0.00 0.00 99 1013.9
20260902025214 64 177 0.0 0.0 0.00 0.00 0.00 99 1014.3
20260902024709 65 171 0.0 0.0 0.00 0.00 0.00 99 1014.3
20260902024204 65 173 0.0 0.0 0.00 0.00 0.00 99 1014.4
20260902023700 65 149 0.0 0.0 0.00 0.00 0.00 99 1014.6
20260902023155 65 164 0.0 0.0 0.00 0.00 0.00 99 1014.4
20260902022654 65 178 0.0 0.0 0.00 0.00 0.00 99 1014.4
20260902022150 65 193 0.0 0.0 0.00 0.00 0.00 99 1014.7
20260902021646 65 178 0.0 0.0 0.00 0.00 0.00 99 1014.6
20260902021140 65 165 0.0 0.0 0.00 0.00 0.00 99 1014.6
20260902020637 65 188 0.0 0.0 0.00 0.00 0.00 99 1014.6
20260902020132 65 181 0.0 0.0 0.00 0.00 0.00 99 1014.7
20260902015627 65 173 0.0 0.0 0.00 0.00 0.00 99 1014.8
20260902015124 65 181 0.0 0.0 0.00 0.00 0.00 99 1014.8
20260902014619 65 180 0.0 0.0 0.00 0.00 0.00 99 1014.3
20260902014115 65 181 0.0 0.0 0.00 0.00 0.00 99 1014.6